Terminal Aerodrome Forecast
Issued by NWS

Home | Current Version | Previous Version | Text Only | Print | Product List | Glossary On
Versions: 1 2 3 4 5 6 7 8 9 10 11 12 13 14 15
611
FTAK31 PAJN 231724
TAFAWG
TAF
PAWG 231724Z 2318/2418 36006KT P6SM -SN SCT005 BKN025 OVC040
     FM232000 12008KT P6SM -RA SCT010 BKN025 OVC040
     FM240200 11004KT P6SM VCSH SCT025 OVC050
     FM240600 11007KT P6SM OVC050
      AMD LTD TO CLD VIS AND WIND 2406/2415=

USA.gov is the U.S. government's official web portal to all federal, state and local government web resources and services.